Location: ??? ?????
(30.6482°N, 60.5850°E)
Time: 18:25:31
(UTC+00:00)

DMSP B5D2-2 - Pass Details

Date: 09 April 2020
Orbit: 791 x 805 km, 98.3° (Epoch: 05 June)

Event Time Altitude Azimuth Distance (km) Brightness Sun altitude
Rises 15:41:20 0° 18° (NNE) 3,298 7.3 -17.3°
Reaches altitude 10° 15:43:43 10° 22° (NNE) 2,367 6.5 -17.8°
Maximum altitude 15:48:50 56° 100° (E) 944 4.1 -18.8°
Drops below altitude 10° 15:53:58 10° 179° (S) 2,363 6.3 -19.8°
Sets 15:56:20 0° 183° (S) 3,292 7.1 -20.3°
